Location: Spring Creek
(38.2870°N, 100.2160°W)
Time: 23:58:15
(UTC+00:00)

X-37B - Pass Details

Date: 08 May 2021
Orbit: 386 x 389 km, 45.0° (Epoch: 10 June)

Event Time Altitude Azimuth Distance (km) Brightness Sun altitude
Rises 02:44:11 0° 284° (WNW) 2,270 5.9 -12.2°
Reaches altitude 10° 02:46:31 10° 299° (WNW) 1,416 4.9 -12.6°
Maximum altitude 02:49:10 24° 355° (N) 861 2.8 -13.0°
Drops below altitude 10° 02:51:50 10° 52° (NE) 1,415 3.3 -13.5°
Enters shadow 02:52:44 - 60° (ENE) 1,732 3.6 -13.6°
